<?xml version="1.0" encoding="UTF-8" standalone="no" ?>
<gpx xmlns="http://www.topografix.com/GPX/1/1" xmlns:xsi="http://www.w3.org/2001/XMLSchema-instance" xsi:schemaLocation="http://www.topografix.com/GPX/1/1 http://www.topografix.com/GPX/1/1/gpx.xsd" version="1.1" creator="VisuGPX - https://www.visugpx.com">
  <metadata>
    <name>ChatelCoulanges</name>
    <desc><![CDATA[Châtel Censoir, Coulanges sur Yonne
Dist 20km      dev+ 280m]]></desc>
  </metadata>
  <trk>
    <name><![CDATA[ChatelCoulanges]]></name>
    <extensions>
      <line xmlns="http://www.topografix.com/GPX/gpx_style/0/2">
        <color>0000FF</color>
        <width>4</width>
      </line>
    </extensions>
    <trkseg>
      <trkpt lat="47.5312" lon="3.63422">
        <ele>137</ele>
        <time>2015-04-29T09:32:42.000Z</time>
      </trkpt>
      <trkpt lat="47.53116" lon="3.63419">
        <ele>137</ele>
        <time>2015-04-29T09:32:42.000Z</time>
      </trkpt>
      <trkpt lat="47.53143" lon="3.63413">
        <ele>137.1</ele>
        <time>2015-04-29T09:32:42.000Z</time>
      </trkpt>
      <trkpt lat="47.53226" lon="3.63408">
        <ele>137.2</ele>
        <time>2015-04-29T09:32:42.000Z</time>
      </trkpt>
      <trkpt lat="47.53224" lon="3.63388">
        <ele>138.1</ele>
        <time>2015-04-29T09:32:42.000Z</time>
      </trkpt>
      <trkpt lat="47.53317" lon="3.63298">
        <ele>134.5</ele>
        <time>2015-04-29T09:32:42.000Z</time>
      </trkpt>
      <trkpt lat="47.53315" lon="3.63298">
        <ele>134.8</ele>
        <time>2015-04-29T09:32:42.000Z</time>
      </trkpt>
      <trkpt lat="47.53285" lon="3.63214">
        <ele>132.8</ele>
        <time>2015-04-29T09:32:42.000Z</time>
      </trkpt>
      <trkpt lat="47.53371" lon="3.62967">
        <ele>131</ele>
        <time>2015-04-29T09:32:42.000Z</time>
      </trkpt>
      <trkpt lat="47.53355" lon="3.62717">
        <ele>131</ele>
        <time>2015-04-29T09:32:42.000Z</time>
      </trkpt>
      <trkpt lat="47.53395" lon="3.62556">
        <ele>135.5</ele>
        <time>2015-04-29T09:32:42.000Z</time>
      </trkpt>
      <trkpt lat="47.53349" lon="3.62452">
        <ele>134</ele>
        <time>2015-04-29T09:32:42.000Z</time>
      </trkpt>
      <trkpt lat="47.53347" lon="3.62289">
        <ele>133.4</ele>
        <time>2015-04-29T09:32:42.000Z</time>
      </trkpt>
      <trkpt lat="47.53382" lon="3.62124">
        <ele>131.3</ele>
        <time>2015-04-29T09:32:42.000Z</time>
      </trkpt>
      <trkpt lat="47.5342" lon="3.61978">
        <ele>132.7</ele>
        <time>2015-04-29T09:32:42.000Z</time>
      </trkpt>
      <trkpt lat="47.53544" lon="3.61689">
        <ele>133.6</ele>
        <time>2015-04-29T09:32:42.000Z</time>
      </trkpt>
      <trkpt lat="47.53787" lon="3.61313">
        <ele>133.7</ele>
        <time>2015-04-29T09:32:42.000Z</time>
      </trkpt>
      <trkpt lat="47.5396" lon="3.61095">
        <ele>135.1</ele>
        <time>2015-04-29T09:32:42.000Z</time>
      </trkpt>
      <trkpt lat="47.53954" lon="3.61091">
        <ele>133.2</ele>
        <time>2015-04-29T09:32:42.000Z</time>
      </trkpt>
      <trkpt lat="47.54159" lon="3.60817">
        <ele>134.1</ele>
        <time>2015-04-29T09:32:42.000Z</time>
      </trkpt>
      <trkpt lat="47.54221" lon="3.60719">
        <ele>132</ele>
        <time>2015-04-29T09:32:42.000Z</time>
      </trkpt>
      <trkpt lat="47.54248" lon="3.60683">
        <ele>134</ele>
        <time>2015-04-29T09:32:42.000Z</time>
      </trkpt>
      <trkpt lat="47.54246" lon="3.60686">
        <ele>134</ele>
        <time>2015-04-29T09:32:42.000Z</time>
      </trkpt>
      <trkpt lat="47.54282" lon="3.60707">
        <ele>140</ele>
        <time>2015-04-29T09:32:42.000Z</time>
      </trkpt>
      <trkpt lat="47.54282" lon="3.6071">
        <ele>140.3</ele>
        <time>2015-04-29T09:32:42.000Z</time>
      </trkpt>
      <trkpt lat="47.54356" lon="3.60712">
        <ele>149.7</ele>
        <time>2015-04-29T09:32:42.000Z</time>
      </trkpt>
      <trkpt lat="47.54479" lon="3.60755">
        <ele>161.5</ele>
        <time>2015-04-29T09:32:42.000Z</time>
      </trkpt>
      <trkpt lat="47.54639" lon="3.60526">
        <ele>193.1</ele>
        <time>2015-04-29T09:32:42.000Z</time>
      </trkpt>
      <trkpt lat="47.54662" lon="3.60042">
        <ele>202.4</ele>
        <time>2015-04-29T09:32:42.000Z</time>
      </trkpt>
      <trkpt lat="47.54573" lon="3.59562">
        <ele>195.5</ele>
        <time>2015-04-29T09:32:42.000Z</time>
      </trkpt>
      <trkpt lat="47.54385" lon="3.59268">
        <ele>193.2</ele>
        <time>2015-04-29T09:32:42.000Z</time>
      </trkpt>
      <trkpt lat="47.53806" lon="3.58962">
        <ele>166.6</ele>
        <time>2015-04-29T09:32:42.000Z</time>
      </trkpt>
      <trkpt lat="47.5362" lon="3.58646">
        <ele>162.2</ele>
        <time>2015-04-29T09:32:42.000Z</time>
      </trkpt>
      <trkpt lat="47.53582" lon="3.58622">
        <ele>161.4</ele>
        <time>2015-04-29T09:32:42.000Z</time>
      </trkpt>
      <trkpt lat="47.53677" lon="3.58571">
        <ele>159.2</ele>
        <time>2015-04-29T09:32:42.000Z</time>
      </trkpt>
      <trkpt lat="47.53752" lon="3.58506">
        <ele>154.3</ele>
        <time>2015-04-29T09:32:42.000Z</time>
      </trkpt>
      <trkpt lat="47.53754" lon="3.58353">
        <ele>149.1</ele>
        <time>2015-04-29T09:32:42.000Z</time>
      </trkpt>
      <trkpt lat="47.53656" lon="3.58019">
        <ele>142.5</ele>
        <time>2015-04-29T09:32:42.000Z</time>
      </trkpt>
      <trkpt lat="47.53612" lon="3.57921">
        <ele>142.9</ele>
        <time>2015-04-29T09:32:42.000Z</time>
      </trkpt>
      <trkpt lat="47.536" lon="3.57838">
        <ele>142.2</ele>
        <time>2015-04-29T09:32:42.000Z</time>
      </trkpt>
      <trkpt lat="47.5355" lon="3.57664">
        <ele>142.5</ele>
        <time>2015-04-29T09:32:42.000Z</time>
      </trkpt>
      <trkpt lat="47.53503" lon="3.57623">
        <ele>141.7</ele>
        <time>2015-04-29T09:32:42.000Z</time>
      </trkpt>
      <trkpt lat="47.53476" lon="3.57457">
        <ele>143.8</ele>
        <time>2015-04-29T09:32:42.000Z</time>
      </trkpt>
      <trkpt lat="47.53396" lon="3.57295">
        <ele>147.7</ele>
        <time>2015-04-29T09:32:42.000Z</time>
      </trkpt>
      <trkpt lat="47.53361" lon="3.57198">
        <ele>152</ele>
        <time>2015-04-29T09:32:42.000Z</time>
      </trkpt>
      <trkpt lat="47.53317" lon="3.56958">
        <ele>155.9</ele>
        <time>2015-04-29T09:32:42.000Z</time>
      </trkpt>
      <trkpt lat="47.53314" lon="3.56965">
        <ele>155.6</ele>
        <time>2015-04-29T09:32:42.000Z</time>
      </trkpt>
      <trkpt lat="47.53229" lon="3.5678">
        <ele>161.9</ele>
        <time>2015-04-29T09:32:42.000Z</time>
      </trkpt>
      <trkpt lat="47.53156" lon="3.56603">
        <ele>165.6</ele>
        <time>2015-04-29T09:32:42.000Z</time>
      </trkpt>
      <trkpt lat="47.53115" lon="3.56465">
        <ele>166.5</ele>
        <time>2015-04-29T09:32:42.000Z</time>
      </trkpt>
      <trkpt lat="47.53115" lon="3.56462">
        <ele>166.6</ele>
        <time>2015-04-29T09:32:42.000Z</time>
      </trkpt>
      <trkpt lat="47.53097" lon="3.56296">
        <ele>166.6</ele>
        <time>2015-04-29T09:32:42.000Z</time>
      </trkpt>
      <trkpt lat="47.5304" lon="3.56112">
        <ele>151.8</ele>
        <time>2015-04-29T09:32:42.000Z</time>
      </trkpt>
      <trkpt lat="47.53025" lon="3.56055">
        <ele>148.3</ele>
        <time>2015-04-29T09:32:42.000Z</time>
      </trkpt>
      <trkpt lat="47.53014" lon="3.55776">
        <ele>145.5</ele>
        <time>2015-04-29T09:32:42.000Z</time>
      </trkpt>
      <trkpt lat="47.52954" lon="3.55519">
        <ele>145.3</ele>
        <time>2015-04-29T09:32:42.000Z</time>
      </trkpt>
      <trkpt lat="47.52907" lon="3.55464">
        <ele>143.6</ele>
        <time>2015-04-29T09:32:42.000Z</time>
      </trkpt>
      <trkpt lat="47.52693" lon="3.55566">
        <ele>138</ele>
        <time>2015-04-29T09:32:42.000Z</time>
      </trkpt>
      <trkpt lat="47.52669" lon="3.55439">
        <ele>138.3</ele>
        <time>2015-04-29T09:32:42.000Z</time>
      </trkpt>
      <trkpt lat="47.52622" lon="3.55441">
        <ele>138</ele>
        <time>2015-04-29T09:32:42.000Z</time>
      </trkpt>
      <trkpt lat="47.52449" lon="3.55225">
        <ele>138.9</ele>
        <time>2015-04-29T09:32:42.000Z</time>
      </trkpt>
      <trkpt lat="47.52413" lon="3.55184">
        <ele>138.9</ele>
        <time>2015-04-29T09:32:42.000Z</time>
      </trkpt>
      <trkpt lat="47.52472" lon="3.54784">
        <ele>138</ele>
        <time>2015-04-29T09:32:42.000Z</time>
      </trkpt>
      <trkpt lat="47.52466" lon="3.54684">
        <ele>138.3</ele>
        <time>2015-04-29T09:32:42.000Z</time>
      </trkpt>
      <trkpt lat="47.52473" lon="3.54439">
        <ele>139</ele>
        <time>2015-04-29T09:32:42.000Z</time>
      </trkpt>
      <trkpt lat="47.52473" lon="3.54435">
        <ele>139</ele>
        <time>2015-04-29T09:32:42.000Z</time>
      </trkpt>
      <trkpt lat="47.5249" lon="3.5412">
        <ele>140.4</ele>
        <time>2015-04-29T09:32:42.000Z</time>
      </trkpt>
      <trkpt lat="47.52485" lon="3.5412">
        <ele>140.1</ele>
        <time>2015-04-29T09:32:42.000Z</time>
      </trkpt>
      <trkpt lat="47.52419" lon="3.54039">
        <ele>140.8</ele>
        <time>2015-04-29T09:32:42.000Z</time>
      </trkpt>
      <trkpt lat="47.52154" lon="3.5399">
        <ele>141.1</ele>
        <time>2015-04-29T09:32:42.000Z</time>
      </trkpt>
      <trkpt lat="47.52039" lon="3.53967">
        <ele>143</ele>
        <time>2015-04-29T09:32:42.000Z</time>
      </trkpt>
      <trkpt lat="47.51965" lon="3.53992">
        <ele>151.7</ele>
        <time>2015-04-29T09:32:42.000Z</time>
      </trkpt>
      <trkpt lat="47.51873" lon="3.5399">
        <ele>167</ele>
        <time>2015-04-29T09:32:42.000Z</time>
      </trkpt>
      <trkpt lat="47.51873" lon="3.53993">
        <ele>167.3</ele>
        <time>2015-04-29T09:32:42.000Z</time>
      </trkpt>
      <trkpt lat="47.51879" lon="3.53987">
        <ele>166.1</ele>
        <time>2015-04-29T09:32:42.000Z</time>
      </trkpt>
      <trkpt lat="47.5176" lon="3.54031">
        <ele>185.1</ele>
        <time>2015-04-29T09:32:42.000Z</time>
      </trkpt>
      <trkpt lat="47.51692" lon="3.54059">
        <ele>192.4</ele>
        <time>2015-04-29T09:32:42.000Z</time>
      </trkpt>
      <trkpt lat="47.5157" lon="3.54073">
        <ele>200.2</ele>
        <time>2015-04-29T09:32:42.000Z</time>
      </trkpt>
      <trkpt lat="47.51414" lon="3.54156">
        <ele>198</ele>
        <time>2015-04-29T09:32:42.000Z</time>
      </trkpt>
      <trkpt lat="47.5116" lon="3.54386">
        <ele>204.2</ele>
        <time>2015-04-29T09:32:42.000Z</time>
      </trkpt>
      <trkpt lat="47.50998" lon="3.54389">
        <ele>207</ele>
        <time>2015-04-29T09:32:42.000Z</time>
      </trkpt>
      <trkpt lat="47.50948" lon="3.54477">
        <ele>207.1</ele>
        <time>2015-04-29T09:32:42.000Z</time>
      </trkpt>
      <trkpt lat="47.50883" lon="3.54412">
        <ele>205.8</ele>
        <time>2015-04-29T09:32:42.000Z</time>
      </trkpt>
      <trkpt lat="47.50617" lon="3.54287">
        <ele>202</ele>
        <time>2015-04-29T09:32:42.000Z</time>
      </trkpt>
      <trkpt lat="47.50508" lon="3.54158">
        <ele>199.7</ele>
        <time>2015-04-29T09:32:42.000Z</time>
      </trkpt>
      <trkpt lat="47.50374" lon="3.54301">
        <ele>198.5</ele>
        <time>2015-04-29T09:32:42.000Z</time>
      </trkpt>
      <trkpt lat="47.50317" lon="3.54337">
        <ele>200.1</ele>
        <time>2015-04-29T09:32:42.000Z</time>
      </trkpt>
      <trkpt lat="47.50203" lon="3.5455">
        <ele>207.6</ele>
        <time>2015-04-29T09:32:42.000Z</time>
      </trkpt>
      <trkpt lat="47.50088" lon="3.54726">
        <ele>207.3</ele>
        <time>2015-04-29T09:32:42.000Z</time>
      </trkpt>
      <trkpt lat="47.50028" lon="3.54894">
        <ele>209</ele>
        <time>2015-04-29T09:32:42.000Z</time>
      </trkpt>
      <trkpt lat="47.5003" lon="3.54884">
        <ele>208.8</ele>
        <time>2015-04-29T09:32:42.000Z</time>
      </trkpt>
      <trkpt lat="47.49952" lon="3.55068">
        <ele>210</ele>
        <time>2015-04-29T09:32:42.000Z</time>
      </trkpt>
      <trkpt lat="47.50146" lon="3.55176">
        <ele>208.8</ele>
        <time>2015-04-29T09:32:42.000Z</time>
      </trkpt>
      <trkpt lat="47.5015" lon="3.55471">
        <ele>202</ele>
        <time>2015-04-29T09:32:42.000Z</time>
      </trkpt>
      <trkpt lat="47.5024" lon="3.55662">
        <ele>197.2</ele>
        <time>2015-04-29T09:32:42.000Z</time>
      </trkpt>
      <trkpt lat="47.50138" lon="3.55773">
        <ele>193</ele>
        <time>2015-04-29T09:32:42.000Z</time>
      </trkpt>
      <trkpt lat="47.50133" lon="3.55803">
        <ele>193.4</ele>
        <time>2015-04-29T09:32:42.000Z</time>
      </trkpt>
      <trkpt lat="47.50114" lon="3.55908">
        <ele>193.9</ele>
        <time>2015-04-29T09:32:42.000Z</time>
      </trkpt>
      <trkpt lat="47.50115" lon="3.56001">
        <ele>192.9</ele>
        <time>2015-04-29T09:32:42.000Z</time>
      </trkpt>
      <trkpt lat="47.50006" lon="3.56321">
        <ele>199</ele>
        <time>2015-04-29T09:32:42.000Z</time>
      </trkpt>
      <trkpt lat="47.4998" lon="3.56635">
        <ele>198</ele>
        <time>2015-04-29T09:32:42.000Z</time>
      </trkpt>
      <trkpt lat="47.49954" lon="3.56824">
        <ele>197.3</ele>
        <time>2015-04-29T09:32:42.000Z</time>
      </trkpt>
      <trkpt lat="47.49938" lon="3.57046">
        <ele>198.7</ele>
        <time>2015-04-29T09:32:42.000Z</time>
      </trkpt>
      <trkpt lat="47.50115" lon="3.57136">
        <ele>193.9</ele>
        <time>2015-04-29T09:32:42.000Z</time>
      </trkpt>
      <trkpt lat="47.50303" lon="3.57197">
        <ele>192.9</ele>
        <time>2015-04-29T09:32:42.000Z</time>
      </trkpt>
      <trkpt lat="47.50401" lon="3.57259">
        <ele>195.3</ele>
        <time>2015-04-29T09:32:42.000Z</time>
      </trkpt>
      <trkpt lat="47.505" lon="3.57271">
        <ele>195.8</ele>
        <time>2015-04-29T09:32:42.000Z</time>
      </trkpt>
      <trkpt lat="47.5068" lon="3.57435">
        <ele>198.2</ele>
        <time>2015-04-29T09:32:42.000Z</time>
      </trkpt>
      <trkpt lat="47.50669" lon="3.57876">
        <ele>202.4</ele>
        <time>2015-04-29T09:32:42.000Z</time>
      </trkpt>
      <trkpt lat="47.50615" lon="3.58044">
        <ele>197.3</ele>
        <time>2015-04-29T09:32:42.000Z</time>
      </trkpt>
      <trkpt lat="47.50645" lon="3.58237">
        <ele>196</ele>
        <time>2015-04-29T09:32:42.000Z</time>
      </trkpt>
      <trkpt lat="47.5064" lon="3.58433">
        <ele>194</ele>
        <time>2015-04-29T09:32:42.000Z</time>
      </trkpt>
      <trkpt lat="47.50591" lon="3.58604">
        <ele>196</ele>
        <time>2015-04-29T09:32:42.000Z</time>
      </trkpt>
      <trkpt lat="47.5057" lon="3.58697">
        <ele>192.9</ele>
        <time>2015-04-29T09:32:42.000Z</time>
      </trkpt>
      <trkpt lat="47.50574" lon="3.5877">
        <ele>190.6</ele>
        <time>2015-04-29T09:32:42.000Z</time>
      </trkpt>
      <trkpt lat="47.50546" lon="3.58866">
        <ele>183.3</ele>
        <time>2015-04-29T09:32:42.000Z</time>
      </trkpt>
      <trkpt lat="47.50569" lon="3.58972">
        <ele>169</ele>
        <time>2015-04-29T09:32:42.000Z</time>
      </trkpt>
      <trkpt lat="47.50533" lon="3.59041">
        <ele>167</ele>
        <time>2015-04-29T09:32:42.000Z</time>
      </trkpt>
      <trkpt lat="47.50541" lon="3.59098">
        <ele>168.1</ele>
        <time>2015-04-29T09:32:42.000Z</time>
      </trkpt>
      <trkpt lat="47.50617" lon="3.59126">
        <ele>164.2</ele>
        <time>2015-04-29T09:32:42.000Z</time>
      </trkpt>
      <trkpt lat="47.50711" lon="3.59215">
        <ele>162.3</ele>
        <time>2015-04-29T09:32:42.000Z</time>
      </trkpt>
      <trkpt lat="47.50893" lon="3.59368">
        <ele>159</ele>
        <time>2015-04-29T09:32:42.000Z</time>
      </trkpt>
      <trkpt lat="47.50896" lon="3.59368">
        <ele>159.1</ele>
        <time>2015-04-29T09:32:42.000Z</time>
      </trkpt>
      <trkpt lat="47.50972" lon="3.59423">
        <ele>160</ele>
        <time>2015-04-29T09:32:42.000Z</time>
      </trkpt>
      <trkpt lat="47.5102" lon="3.59527">
        <ele>157.9</ele>
        <time>2015-04-29T09:32:42.000Z</time>
      </trkpt>
      <trkpt lat="47.51021" lon="3.59806">
        <ele>156.1</ele>
        <time>2015-04-29T09:32:42.000Z</time>
      </trkpt>
      <trkpt lat="47.51023" lon="3.59889">
        <ele>153.8</ele>
        <time>2015-04-29T09:32:42.000Z</time>
      </trkpt>
      <trkpt lat="47.51113" lon="3.60074">
        <ele>152.4</ele>
        <time>2015-04-29T09:32:42.000Z</time>
      </trkpt>
      <trkpt lat="47.5124" lon="3.6014">
        <ele>150.6</ele>
        <time>2015-04-29T09:32:42.000Z</time>
      </trkpt>
      <trkpt lat="47.51285" lon="3.60174">
        <ele>159.1</ele>
        <time>2015-04-29T09:32:42.000Z</time>
      </trkpt>
      <trkpt lat="47.5128" lon="3.60267">
        <ele>150.8</ele>
        <time>2015-04-29T09:32:42.000Z</time>
      </trkpt>
      <trkpt lat="47.51332" lon="3.60408">
        <ele>152.4</ele>
        <time>2015-04-29T09:32:42.000Z</time>
      </trkpt>
      <trkpt lat="47.51321" lon="3.60567">
        <ele>149.3</ele>
        <time>2015-04-29T09:32:42.000Z</time>
      </trkpt>
      <trkpt lat="47.51437" lon="3.60663">
        <ele>151.6</ele>
        <time>2015-04-29T09:32:42.000Z</time>
      </trkpt>
      <trkpt lat="47.51433" lon="3.60656">
        <ele>150.8</ele>
        <time>2015-04-29T09:32:42.000Z</time>
      </trkpt>
      <trkpt lat="47.5159" lon="3.60666">
        <ele>146</ele>
        <time>2015-04-29T09:32:42.000Z</time>
      </trkpt>
      <trkpt lat="47.51694" lon="3.60609">
        <ele>142.9</ele>
        <time>2015-04-29T09:32:42.000Z</time>
      </trkpt>
      <trkpt lat="47.51851" lon="3.60679">
        <ele>145.4</ele>
        <time>2015-04-29T09:32:42.000Z</time>
      </trkpt>
      <trkpt lat="47.51946" lon="3.60635">
        <ele>146.4</ele>
        <time>2015-04-29T09:32:42.000Z</time>
      </trkpt>
      <trkpt lat="47.5201" lon="3.60484">
        <ele>139.3</ele>
        <time>2015-04-29T09:32:42.000Z</time>
      </trkpt>
      <trkpt lat="47.52137" lon="3.60394">
        <ele>138.2</ele>
        <time>2015-04-29T09:32:42.000Z</time>
      </trkpt>
      <trkpt lat="47.52275" lon="3.6051">
        <ele>151.1</ele>
        <time>2015-04-29T09:32:42.000Z</time>
      </trkpt>
      <trkpt lat="47.52359" lon="3.60651">
        <ele>160.1</ele>
        <time>2015-04-29T09:32:42.000Z</time>
      </trkpt>
      <trkpt lat="47.52407" lon="3.60838">
        <ele>172.9</ele>
        <time>2015-04-29T09:32:42.000Z</time>
      </trkpt>
      <trkpt lat="47.52481" lon="3.61444">
        <ele>182.7</ele>
        <time>2015-04-29T09:32:42.000Z</time>
      </trkpt>
      <trkpt lat="47.52594" lon="3.61839">
        <ele>188.6</ele>
        <time>2015-04-29T09:32:42.000Z</time>
      </trkpt>
      <trkpt lat="47.52545" lon="3.62143">
        <ele>174.6</ele>
        <time>2015-04-29T09:32:42.000Z</time>
      </trkpt>
      <trkpt lat="47.52615" lon="3.62191">
        <ele>164.8</ele>
        <time>2015-04-29T09:32:42.000Z</time>
      </trkpt>
      <trkpt lat="47.52665" lon="3.62269">
        <ele>164.1</ele>
        <time>2015-04-29T09:32:42.000Z</time>
      </trkpt>
      <trkpt lat="47.5265" lon="3.62275">
        <ele>165.6</ele>
        <time>2015-04-29T09:32:42.000Z</time>
      </trkpt>
      <trkpt lat="47.52751" lon="3.6247">
        <ele>173.7</ele>
        <time>2015-04-29T09:32:42.000Z</time>
      </trkpt>
      <trkpt lat="47.52829" lon="3.62535">
        <ele>177</ele>
        <time>2015-04-29T09:32:42.000Z</time>
      </trkpt>
      <trkpt lat="47.52939" lon="3.62767">
        <ele>180.1</ele>
        <time>2015-04-29T09:32:42.000Z</time>
      </trkpt>
      <trkpt lat="47.52982" lon="3.62937">
        <ele>183.8</ele>
        <time>2015-04-29T09:32:42.000Z</time>
      </trkpt>
      <trkpt lat="47.52954" lon="3.6301">
        <ele>185.3</ele>
        <time>2015-04-29T09:32:42.000Z</time>
      </trkpt>
      <trkpt lat="47.53087" lon="3.63219">
        <ele>167.2</ele>
        <time>2015-04-29T09:32:42.000Z</time>
      </trkpt>
      <trkpt lat="47.53087" lon="3.63216">
        <ele>167.8</ele>
        <time>2015-04-29T09:32:42.000Z</time>
      </trkpt>
      <trkpt lat="47.52902" lon="3.63195">
        <ele>142.5</ele>
        <time>2015-04-29T09:32:42.000Z</time>
      </trkpt>
      <trkpt lat="47.52892" lon="3.63367">
        <ele>141.1</ele>
        <time>2015-04-29T09:32:42.000Z</time>
      </trkpt>
      <trkpt lat="47.52936" lon="3.63371">
        <ele>139.4</ele>
        <time>2015-04-29T09:32:42.000Z</time>
      </trkpt>
      <trkpt lat="47.53012" lon="3.63436">
        <ele>138.9</ele>
        <time>2015-04-29T09:32:42.000Z</time>
      </trkpt>
      <trkpt lat="47.53113" lon="3.63432">
        <ele>137</ele>
        <time>2015-04-29T09:32:42.000Z</time>
      </trkpt>
      <trkpt lat="47.53129" lon="3.63419">
        <ele>137</ele>
        <time>2015-04-29T09:32:42.000Z</time>
      </trkpt>
    </trkseg>
  </trk>
</gpx>